This is the latest recevied weather packets stored in our database for station/object IK2ILW-4. If no packets are shown the sender has not sent any weather packets the latest 10 day(s).
| Time | Temp. | Humidity | Pressure | Rain* | Wind** | Luminosity | Snow |
|---|---|---|---|---|---|---|---|
| 1787996566 | 20° C | 77% | 1020.1 hPa | 0.25 mm | - | 780 W/m² | - |
| 1787996255 | 19.44° C | 76% | 1020.1 hPa | 0.25 mm | - | 476 W/m² | - |
| 1787995953 | 20° C | 76% | 1020.1 hPa | 0.25 mm | - | 737 W/m² | - |
| 1787995668 | 19.44° C | 79% | 1020.1 hPa | 0.25 mm | - | 731 W/m² | - |
| 1787995365 | 20° C | 78% | 1020.1 hPa | 0.25 mm | - | 733 W/m² | - |
| 1787995072 | 19.44° C | 80% | 1020.1 hPa | 0.25 mm | - | 726 W/m² | - |
| 1787994763 | 19.44° C | 81% | 1020.2 hPa | 0.25 mm | - | 705 W/m² | - |
| 1787994460 | 19.44° C | 78% | 1020.2 hPa | 0.25 mm | - | 700 W/m² | - |
| 1787994153 | 18.89° C | 82% | 1020.2 hPa | 0.25 mm | - | 675 W/m² | - |
| 1787993873 | 18.89° C | 81% | 1020.1 hPa | 0.25 mm | - | 657 W/m² | - |
| 1787993570 | 19.44° C | 82% | 1020.1 hPa | 0.25 mm | - | 684 W/m² | - |
| 1787993256 | 18.89° C | 81% | 1020.1 hPa | 0.25 mm | - | 696 W/m² | - |
| 1787992970 | 18.89° C | 82% | 1020.1 hPa | 0.25 mm | - | 673 W/m² | - |
| 1787992657 | 18.33° C | 83% | 1020.1 hPa | 0.25 mm | - | 740 W/m² | - |
| 1787992363 | 18.33° C | 86% | 1020.1 hPa | 0.25 mm | - | 680 W/m² | - |
| 1787992058 | 17.78° C | 86% | 1020 hPa | 0.25 mm | - | 269 W/m² | - |
| 1787991758 | 17.78° C | 87% | 1020 hPa | 0.25 mm | - | 605 W/m² | - |
| 1787991455 | 17.78° C | 87% | 1020 hPa | 0.25 mm | - | 608 W/m² | - |
| 1787991172 | 17.78° C | 87% | 1019.9 hPa | 0.25 mm | - | 612 W/m² | - |
| 1787990866 | 17.22° C | 91% | 1019.9 hPa | 0.25 mm | - | 550 W/m² | - |
| 1787990556 | 17.22° C | 90% | 1019.9 hPa | 0.25 mm | - | 149 W/m² | - |
| 1787990268 | 17.22° C | 89% | 1019.7 hPa | 0.25 mm | - | 137 W/m² | - |
| 1787989964 | 17.22° C | 88% | 1019.7 hPa | 0.25 mm | - | 225 W/m² | - |
| 1787989670 | 17.78° C | 88% | 1019.7 hPa | 0.25 mm | - | 142 W/m² | - |
| 1787989370 | 17.78° C | 88% | 1019.8 hPa | 0.25 mm | - | 541 W/m² | - |
* Rain since midnight (hover to see other rain measurements)
** Current wind speed in m/s (hover to see current wind gust speed)